[[{"header":{"parameterUnit":"m.s-1","parameterCategory":1,"la1":30.2991,"la2":30.254,"lo1":-89.0895,"lo2":-89.0444,"dy":0.0017,"dx":0.0017,"nx":28,"ny":28,"refTime":"2024-07-26T03:00:00:Z","depth":0,"parameterNumber":2,"parameterNumberName":"U-component_of_WINDS"},"data":[0,0,0,0,0,0,0,0,0,0,0,0,0,0,0,0,0,0,0,0,0,0,0,0,0,0,0,0,0,0,0,0,0,0,0,0,0,0,0,0,0,0,0,0,0,0,0,0,0,0,0,0,0,0,0,0,0,0,-0.6976,-0.6975,0,-0.693,-0.693,-0.6929,-0.6896,-0.6896,-0.6896,-0.6895,-0.685,-0.6849,-0.6848,0,0,0,0,0,0,0,0,0,0,0,0,0,-0.7035,-0.7034,-0.6976,-0.6975,-0.6974,-0.693,-0.693,-0.6929,-0.6896,-0.6896,-0.6896,-0.6895,-0.685,-0.6849,-0.6848,0,0,0,0,0,0,0,0,0,0,0,0,0,-0.7001,-0.7033,-0.6976,-0.6953,-0.695,-0.693,-0.693,-0.6929,-0.6896,-0.6896,-0.6895,-0.6895,-0.685,-0.6849,-0.6848,-0.6847,0,0,-0.6843,-0.6843,0,0,0,0,0,0,0,0,-0.7003,-0.6999,-0.6957,-0.6954,-0.6951,-0.6918,-0.6934,-0.6902,-0.6896,-0.6917,-0.6895,-0.6895,-0.6873,-0.687,-0.6862,-0.6845,-0.6843,-0.6843,-0.6842,-0.6842,-0.6841,0,0,0,0,0,0,0,-0.7005,-0.7001,-0.6958,-0.6956,-0.6953,-0.6945,-0.694,-0.6927,-0.6898,-0.6915,-0.6913,-0.6908,-0.6871,-0.6864,-0.6861,-0.6842,-0.6843,-0.6842,-0.6841,-0.684,-0.6823,-0.6823,0,0,0,0,0,0,-0.7011,-0.7003,-0.6959,-0.6956,-0.6977,-0.6944,-0.6938,-0.6929,-0.6898,-0.6893,-0.6908,-0.6906,-0.6866,-0.6863,-0.6859,-0.6856,-0.6842,-0.684,-0.684,-0.6822,-0.6823,-0.6823,0,0,0,0,0,0,-0.7013,-0.7008,-0.6961,-0.6979,-0.6972,-0.6944,-0.6934,-0.6929,-0.6921,-0.6893,-0.6887,-0.6905,-0.6866,-0.6861,-0.685,-0.6854,-0.684,-0.6838,-0.6822,-0.6822,-0.6823,-0.6851,0,0,0,0,0,0,-0.7014,-0.7008,-0.7008,-0.6979,-0.6971,-0.6953,-0.6934,-0.6928,-0.6918,-0.6916,-0.6889,-0.6884,-0.6865,-0.6853,-0.6849,-0.6852,-0.6837,-0.6821,-0.6822,-0.6823,-0.685,-0.6853,-0.6855,0,0,0,0,0,-0.7017,-0.7018,-0.7008,-0.7003,-0.697,-0.6953,-0.6949,-0.6927,-0.6919,-0.6918,-0.69,-0.6885,-0.6855,-0.6852,-0.6847,-0.685,-0.6821,-0.6822,-0.6823,-0.6849,-0.6852,-0.6855,0,0,0,0,0,0,-0.7048,-0.7014,-0.7002,-0.6994,-0.6977,-0.6948,-0.6946,-0.6931,-0.6916,-0.6914,-0.6888,-0.6883,-0.6875,-0.6861,-0.6859,-0.6848,-0.6836,-0.6836,-0.6857,-0.686,-0.6863,-0.6866,-0.6836,0,0,0,0,0,-0.7054,-0.7043,-0.7013,-0.7009,-0.7001,-0.6975,-0.6967,-0.6951,-0.6933,-0.6925,-0.6906,-0.6889,-0.6875,-0.6867,-0.6853,-0.6848,-0.6841,-0.6847,-0.685,-0.6852,-0.6853,-0.6849,-0.6851,-0.6826,-0.6826,-0.6826,0,0,-0.7066,-0.7046,-0.704,-0.7014,-0.6999,-0.6988,-0.6969,-0.6958,-0.695,-0.6924,-0.6912,-0.6898,-0.6876,-0.6868,-0.6864,-0.6857,-0.6858,-0.6853,-0.6856,-0.6855,-0.685,-0.6852,-0.6855,-0.6827,-0.6826,-0.6826,0,0,-0.7082,-0.7066,-0.706,-0.7045,-0.7022,-0.7005,-0.7004,-0.6977,-0.6966,-0.6954,-0.6934,-0.6924,-0.6902,-0.6887,-0.6877,-0.6888,-0.6873,-0.6884,-0.6898,-0.6895,-0.6897,-0.6898,-0.6902,-0.6904,-0.6885,-0.6885,-0.6885,0,-0.71,-0.7083,-0.7059,-0.705,-0.7039,-0.7014,-0.7008,-0.6995,-0.6969,-0.6963,-0.6955,-0.6926,-0.691,-0.6898,-0.6901,-0.6894,-0.6891,-0.6887,-0.6898,-0.69,-0.6901,-0.6904,-0.6906,-0.6886,-0.6886,-0.6886,-0.6886,0,-0.7106,-0.7094,-0.7093,-0.7068,-0.7057,-0.7049,-0.7025,-0.7017,-0.7002,-0.6986,-0.6974,-0.6954,-0.6936,-0.6932,-0.6918,-0.6918,-0.6914,-0.6903,-0.689,-0.6905,-0.6908,-0.6909,-0.6888,-0.6888,-0.6887,-0.6887,0,0,-0.7141,-0.7103,-0.7103,-0.7091,-0.7064,-0.7055,-0.7046,-0.7028,-0.7021,-0.7004,-0.6996,-0.6978,-0.6967,-0.6955,-0.6939,-0.6936,-0.6946,-0.6925,-0.6924,-0.693,-0.6945,-0.6954,-0.6956,-0.6936,-0.6937,-0.6937,-0.6947,0,-0.7153,-0.7136,-0.7115,-0.7105,-0.7094,-0.707,-0.7063,-0.7045,-0.703,-0.7018,-0.7001,-0.6989,-0.6975,-0.6968,-0.6964,-0.6946,-0.6949,-0.6945,-0.6929,-0.6929,-0.6935,-0.6957,-0.6966,-0.6977,-0.6948,-0.6948,-0.6948,0,-0.7166,-0.7149,-0.7138,-0.7112,-0.7106,-0.71,-0.7081,-0.7071,-0.7051,-0.7039,-0.7027,-0.7009,-0.6999,-0.6988,-0.6974,-0.6971,-0.6964,-0.6954,-0.6954,-0.6951,-0.6939,-0.6955,-0.698,-0.6981,-0.695,-0.6949,-0.6949,0,-0.7192,-0.7168,-0.7158,-0.7148,-0.7117,-0.7113,-0.71,-0.708,-0.707,-0.7054,-0.7047,-0.703,-0.7021,-0.7008,-0.6987,-0.6981,-0.6975,-0.6962,-0.6966,-0.6967,-0.6966,-0.6966,-0.6989,-0.6961,-0.6961,-0.6961,-0.6961,0,-0.7208,-0.7202,-0.7169,-0.7163,-0.7156,-0.7131,-0.7125,-0.711,-0.7092,-0.7083,-0.7061,-0.7053,-0.7026,-0.7014,-0.6998,-0.6988,-0.6984,-0.6975,-0.6971,-0.6977,-0.6978,-0.6972,-0.6971,-0.6961,-0.6961,-0.6961,-0.6961,0,-0.7237,-0.7214,-0.7202,-0.7173,-0.7166,-0.7162,-0.7138,-0.7131,-0.7114,-0.7103,-0.7099,-0.7073,-0.7058,-0.7036,-0.7015,-0.7004,-0.6997,-0.699,-0.7004,-0.7001,-0.7006,-0.7006,-0.7026,-0.7027,-0.6999,-0.6999,-0.6999,0,-0.7248,-0.7243,-0.7214,-0.7206,-0.7194,-0.7182,-0.7171,-0.7147,-0.7137,-0.7114,-0.711,-0.7094,-0.708,-0.7058,-0.7037,-0.7021,-0.7013,-0.7021,-0.7011,-0.7017,-0.7013,-0.7014,-0.7013,-0.7024,-0.7024,-0.7025,-0.7025,0,-0.7272,-0.7261,-0.7247,-0.7229,-0.7217,-0.7202,-0.7186,-0.7181,-0.7153,-0.7143,-0.7128,-0.7117,-0.7095,-0.7079,-0.706,-0.7047,-0.7031,-0.7028,-0.7028,-0.7035,-0.7043,-0.7038,-0.7011,-0.7028,-0.7028,-0.7027,-0.7027,-0.7027,-0.7292,-0.7286,-0.7265,-0.725,-0.7235,-0.722,-0.7213,-0.7195,-0.7182,-0.7162,-0.7148,-0.7134,-0.7114,-0.7086,-0.7074,-0.7062,-0.7056,-0.7056,-0.7056,-0.7056,-0.7058,-0.7045,-0.7059,-0.7059,-0.7059,-0.7059,-0.7059,0,-0.7314,-0.7299,-0.7286,-0.7263,-0.7252,-0.7238,-0.7219,-0.721,-0.7198,-0.718,-0.7166,-0.7149,-0.7133,-0.7111,-0.7094,-0.7089,-0.7082,-0.7086,-0.7086,-0.7083,-0.7065,-0.7067,-0.7092,-0.7092,-0.7092,-0.7092,-0.7092,-0.7092,-0.7324,-0.7314,-0.73,-0.7283,-0.7267,-0.7253,-0.7243,-0.723,-0.7215,-0.7197,-0.7184,-0.7169,-0.715,-0.7131,-0.7116,-0.711,-0.7105,-0.7111,-0.7103,-0.7087,-0.7084,-0.7081,-0.7083,-0.711,-0.711,-0.7121,-0.7121,-0.7121]},{"header":{"parameterUnit":"m.s-1","parameterCategory":1,"la1":30.2991,"la2":30.254,"lo1":-89.0895,"lo2":-89.0444,"dy":0.0017,"dx":0.0017,"nx":28,"ny":28,"refTime":"2024-07-26T03:00:00:Z","depth":0,"parameterNumber":3,"parameterNumberName":"V-component_of_WINDS"},"data":[0,0,0,0,0,0,0,0,0,0,0,0,0,0,0,0,0,0,0,0,0,0,0,0,0,0,0,0,0,0,0,0,0,0,0,0,0,0,0,0,0,0,0,0,0,0,0,0,0,0,0,0,0,0,0,0,0,0,2.6048,2.6048,0,2.6062,2.6062,2.6063,2.6001,2.5999,2.5997,2.5996,2.601,2.6012,2.6014,0,0,0,0,0,0,0,0,0,0,0,0,0,2.5967,2.5969,2.6048,2.6048,2.6049,2.6062,2.6063,2.6063,2.6001,2.5999,2.5997,2.5995,2.6009,2.6011,2.6014,0,0,0,0,0,0,0,0,0,0,0,0,0,2.5994,2.5969,2.6048,2.602,2.6017,2.6062,2.6063,2.6063,2.6002,2.5999,2.5996,2.5994,2.6008,2.6011,2.6014,2.6087,0,0,2.6023,2.6025,0,0,0,0,0,0,0,0,2.5992,2.5997,2.6024,2.6022,2.6019,2.6027,2.6039,2.6071,2.6002,2.6008,2.5996,2.5993,2.6018,2.602,2.6028,2.6088,2.6088,2.6024,2.6026,2.6027,2.6028,0,0,0,0,0,0,0,2.5991,2.5996,2.6054,2.6024,2.6021,2.6006,2.6007,2.6045,2.6028,2.6007,2.6003,2.6005,2.6016,2.6025,2.6028,2.6089,2.6024,2.6026,2.6028,2.603,2.6207,2.621,0,0,0,0,0,0,2.5993,2.5995,2.6053,2.6054,2.5999,2.6009,2.601,2.6027,2.6027,2.6024,2.6007,2.6002,2.6022,2.6025,2.6028,2.6113,2.6027,2.603,2.6032,2.6204,2.6208,2.6211,0,0,0,0,0,0,2.5991,2.5999,2.6053,2.6023,2.6029,2.6014,2.6033,2.6029,2.6039,2.6027,2.6024,2.602,2.6019,2.6024,2.6073,2.6112,2.6031,2.6034,2.6201,2.6206,2.621,2.6283,0,0,0,0,0,0,2.5989,2.5998,2.6026,2.6024,2.6031,2.6098,2.6036,2.6031,2.6044,2.6037,2.6039,2.6036,2.6018,2.6068,2.6076,2.6115,2.6036,2.6197,2.6203,2.6208,2.6277,2.629,2.63,0,0,0,0,0,2.5986,2.6047,2.6028,2.6035,2.6066,2.61,2.6104,2.6081,2.6048,2.6075,2.6068,2.6036,2.6107,2.6074,2.6082,2.6123,2.6195,2.6201,2.6208,2.6272,2.6287,2.63,0,0,0,0,0,0,2.6054,2.6046,2.6025,2.6087,2.6095,2.609,2.6124,2.6098,2.6115,2.6108,2.608,2.6081,2.6134,2.6133,2.6096,2.6193,2.6145,2.6153,2.6191,2.6205,2.6217,2.6216,2.6039,0,0,0,0,0,2.6076,2.6105,2.6096,2.6151,2.6156,2.614,2.6154,2.6136,2.6142,2.6145,2.6142,2.6149,2.6173,2.6189,2.6211,2.6277,2.6276,2.6309,2.632,2.633,2.6337,2.6371,2.6385,2.6232,2.6232,2.6232,0,0,2.6122,2.6121,2.6141,2.6165,2.6169,2.6199,2.6143,2.6177,2.6199,2.6151,2.6196,2.6194,2.62,2.6258,2.6283,2.6259,2.6379,2.6338,2.6346,2.6348,2.6379,2.6394,2.6407,2.6237,2.6236,2.6235,0,0,2.622,2.6223,2.6269,2.6273,2.628,2.6268,2.6279,2.6278,2.6275,2.632,2.6284,2.6309,2.6351,2.6357,2.6365,2.6465,2.6436,2.6473,2.6533,2.6566,2.6578,2.6589,2.6623,2.6636,2.648,2.6481,2.6481,0,2.6276,2.632,2.6295,2.6332,2.6343,2.6301,2.6346,2.6352,2.6365,2.6374,2.6346,2.6397,2.6399,2.6457,2.6481,2.649,2.6501,2.6472,2.6579,2.6589,2.6598,2.6631,2.6644,2.6485,2.6484,2.6484,2.6484,0,2.6388,2.6419,2.6455,2.6469,2.6484,2.6525,2.6506,2.6524,2.6505,2.6496,2.6542,2.6542,2.6562,2.6575,2.6556,2.663,2.6614,2.6584,2.6535,2.6618,2.6648,2.666,2.6491,2.649,2.6488,2.6487,0,0,2.653,2.6528,2.6542,2.6547,2.6551,2.6574,2.6613,2.6632,2.6648,2.6659,2.669,2.6726,2.6697,2.6707,2.6688,2.6718,2.6796,2.6683,2.6683,2.6703,2.6876,2.6898,2.6913,2.6777,2.6779,2.6781,2.6875,0,2.6626,2.6692,2.667,2.6737,2.6764,2.6724,2.6758,2.6763,2.6756,2.6778,2.6769,2.6795,2.6756,2.6761,2.6788,2.6781,2.683,2.6774,2.6805,2.6806,2.6804,2.6929,2.6954,2.7042,2.6887,2.6889,2.689,0,2.6746,2.6761,2.6831,2.6829,2.684,2.687,2.6886,2.6908,2.6913,2.6905,2.6916,2.6891,2.6928,2.688,2.693,2.6892,2.6904,2.6902,2.6905,2.6906,2.6853,2.6934,2.707,2.7083,2.6909,2.6907,2.6906,0,2.6842,2.6879,2.6925,2.6931,2.693,2.6952,2.6953,2.6955,2.6968,2.6982,2.699,2.7008,2.7018,2.7032,2.7012,2.6979,2.7065,2.7016,2.7059,2.706,2.7079,2.7078,2.7218,2.7088,2.7088,2.7087,2.7087,0,2.6951,2.6995,2.6968,2.6996,2.7044,2.7018,2.7066,2.7062,2.7064,2.7091,2.7057,2.7083,2.7056,2.7078,2.7063,2.7107,2.7112,2.7106,2.7102,2.7109,2.711,2.7116,2.7109,2.7091,2.709,2.7089,2.7089,0,2.7065,2.7049,2.7096,2.7091,2.7091,2.7126,2.7122,2.7147,2.7137,2.7171,2.7177,2.7162,2.7187,2.7169,2.7194,2.7184,2.724,2.7228,2.7239,2.7235,2.728,2.7275,2.7428,2.7447,2.7305,2.7306,2.7308,0,2.7135,2.7168,2.7166,2.7181,2.7184,2.7209,2.7222,2.7198,2.7212,2.722,2.7245,2.7267,2.7283,2.7325,2.7316,2.7334,2.7321,2.7374,2.7324,2.733,2.7321,2.7319,2.7322,2.7384,2.7385,2.7387,2.7388,0,2.7262,2.7252,2.7271,2.7289,2.7305,2.7317,2.7326,2.7341,2.7316,2.7334,2.7359,2.7372,2.7397,2.7419,2.7434,2.7434,2.7407,2.7403,2.7414,2.7422,2.7427,2.7424,2.7265,2.74,2.7399,2.7398,2.7397,2.7397,2.7355,2.7382,2.7385,2.7408,2.7412,2.7422,2.7445,2.7438,2.7458,2.7477,2.7461,2.7491,2.7494,2.7512,2.7515,2.7538,2.7516,2.7533,2.7536,2.7541,2.7547,2.7424,2.7541,2.754,2.754,2.754,2.7539,0,2.7479,2.7479,2.75,2.7514,2.7532,2.7505,2.7513,2.753,2.7557,2.7562,2.7579,2.7607,2.7628,2.762,2.7639,2.7658,2.7646,2.7664,2.7662,2.7662,2.7565,2.7554,2.7673,2.7673,2.7673,2.7673,2.7673,2.7673,2.7546,2.7589,2.758,2.7625,2.7624,2.7653,2.766,2.7668,2.7672,2.7705,2.7723,2.7717,2.7717,2.7735,2.7753,2.775,2.7758,2.7781,2.7773,2.7683,2.7669,2.7657,2.7645,2.7783,2.7783,2.7868,2.7869,2.787]}]]